Weather Roundup
Issued by NWS Chicago, IL

Home | Current Version | Previous Version | Graphics & Text | Print | Product List | Glossary On
Versions: 1 2 3 4 5 6 7 8 9 10 11 12 13 14 15 16 17 18 19 20 21 22 23 24 25 26 27 28 29 30 31 32 33 34 35 36 37 38 39 40 41 42 43 44 45 46 47 48 49 50
159
NZUS59 KLOT 230103
HRRLOT

CHICAGO AREA WEATHER ROUNDUP
NATIONAL WEATHER SERVICE CHICAGO/ROMEOVILLE IL
800 PM CDT FRI SEP 22 2017

NOTE: "FAIR" INDICATES FEW OR NO CLOUDS BELOW 12,000 FEET WITH NO
SIGNIFICANT WEATHER AND/OR OBSTRUCTIONS TO VISIBILITY.

* THESE STATIONS ARE NOT UNDER NWS QUALITY CONTROL. THEY ALSO MAY NOT
  REPORT WEATHER SUCH AS PRECIPITATION OR FOG.

ILZ005-006-012>014-019>023-230200-
NORTHEAST ILLINOIS

CITY           SKY/WX    TMP DP  RH WIND       PRES   REMARKS
OHARE          CLEAR     83  65  54 SE9       30.02R HX  85
MIDWAY         CLEAR     86  68  54 SE8       30.03R HX  89
AURORA         CLEAR     78  67  68 SE3       30.03R HX  80
LANSING*       CLEAR     81  70  68 CALM      30.04S HX  84
JOLIET*        CLEAR     82  69  65 CALM      30.02S HX  85
WAUKEGAN       CLEAR     78  69  73 S6        30.02S HX  80
DUPAGE AIRPORT CLEAR     79  68  69 CALM      30.02S HX  81
WHEELING       CLEAR     83  69  62 SE3       30.04R HX  86
MORRIS*        CLEAR     81  66  61 SE6       30.01S HX  83
LEWIS AIRPORT* CLEAR     80  67  63 SE6       30.03S HX  83
NORTHERLY ISL    N/A     75  68  78 SE5         N/A
$$

WIZ051-052-058>065-066-070>072-230200-
SOUTHEAST WISCONSIN

CITY           SKY/WX    TMP DP  RH WIND       PRES   REMARKS
MILWAUKEE      PTCLDY    80  67  64 S9        30.01S HX  82
KENOSHA*       CLEAR     78  66  66 S3        30.03S HX  80
RACINE*        CLEAR     78  69  73 S8        30.04S HX  80
WAUKESHA       CLEAR     79  64  61 S7        30.03R HX  81
$$

INZ001>003-010>013-019-020-230200-
NORTHWEST INDIANA

CITY           SKY/WX    TMP DP  RH WIND       PRES   REMARKS
GARY*          CLEAR     75  68  78 E5        30.05R
MICHIGAN CITY* NOT AVBL
RENSSELAER*    NOT AVBL
VALPARAISO     CLEAR     79  68  69 NE5       30.05S HX  81
$$

LMZ740>746-230200-
SOUTHERN LAKE MICHIGAN

STATION/POSITION TIME  SKY/WX   TEMP WIND        PRES    VSBY
                                AIR  DIR/SP/G
                 (UTC)          (F)  (DEG/KT/KT) (MB)    (MI)
HARRISON CRIB    0040            78  120/ 14/ 15   N/A
BURNHAM HARBOR   0100            75                N/A
CALUMET HARBOR   0030            79  110/ 10/ 12 1016.5R
BURNS HARBOR     0040            77   90/  6/  7 1017.6S
MICHIGAN CITY    0040            82   60/  4/  4   N/A
$$

ABBREVIATIONS USED IN REMARKS
   TC - TEMPERATURE IN CELSIUS
  WCI - WIND CHILL INDEX
   HX - HEAT INDEX
  VSB - VISIBILITY
$$




USA.gov is the U.S. government's official web portal to all federal, state and local government web resources and services.